Content
SEND FEEDBACK

Daily
Averages
Monthly
Summary
Turkmenistan

ASHGABAT, TURKMENISTAN


Home > Asia > Turkmenistan
Elevation: 775 feet     Latitude: 37 58N     Longitude: 058 20E

WEATHER
 
SELECT A DAY
Number of Records: 183,699;   Date Range: 3/15/97 - 12/25/14
 
SHARE

PRINT THIS DATA

[ ← Previous Day ]
WEATHER ALMANAC - MAY 25, 2013
[ Next Day → ]
[ °C ]   °F
Weather ElementAverageHighLow
Temperature78.9 °F91.4 °F (3:00 pm)52 °F (5:00 am)
Dewpoint43.2 °F52 °F (2:00 am)30.2 °F (3:00 pm)
Humidity29.8 %82 % (5:00 am)10 % (2:00 pm)
Barometer29.97 in30.01 in (10:00 am)29.92 in (8:00 pm)
Wind Speed7.9 mph15.7 mph (9:00 am)
Weather ElementAverage
Visibility6.2 mi
Wind DirectionW (271.9 °)

Weather ElementTotal
Precipitation---
Cooling Degree Days6.7 (Base 65)
Growing Degree Days21.7 (Base 50)
Averaged from 32 records on May 25, 2013
WEATHER CONDITIONS BREAKOUT
WIND DIRECTION BREAKOUT
WEATHER BY HOUR - MAY 25, 2013
[ °C ]   °F
Local TimeTemperatureDewpointHumidityBarometerVisibilityWind DirectionWind SpeedGust SpeedPrecipitationEventsConditions
1:00 AM71.6 °F48.2 °F43 %29.98 in6.2 miWest (270°)8.9 mphMostly Cloudy
2:00 AM68.0 °F52.0 °F46 %29.97 in6.0 miWest (260°)4.5 mphClear
2:00 AM69.8 °F48.2 °F46 %29.95 in6.2 miWest (260°)6.7 mphPartly Cloudy
3:00 AM68.0 °F48.2 °F49 %29.95 in6.2 miSW (220°)4.5 mphClear
4:00 AM69.8 °F46.4 °F43 %29.95 in6.2 miWest (280°)11.2 mphPartly Cloudy
5:00 AM52.0 °F48.0 °F82 %29.97 in6.0 miWest (280°)8.9 mphClear
5:00 AM68.0 °F46.4 °F46 %29.95 in6.2 miWest (280°)8.9 mphPartly Cloudy
6:00 AM68.0 °F48.2 °F49 %29.98 in6.2 miWest (270°)8.9 mphPartly Cloudy
7:00 AM71.6 °F50.0 °F46 %29.98 in6.2 miWNW (290°)6.7 mphClear
8:00 AM73.0 °F52.0 °F36 %29.98 in6.0 miWNW (290°)11.2 mph
8:00 AM73.4 °F48.2 °F41 %29.98 in6.2 miWNW (290°)11.2 mphClear
9:00 AM77.0 °F51.8 °F41 %29.98 in6.2 miWNW (300°)15.7 mphPartly Cloudy
10:00 AM78.8 °F48.2 °F34 %30.01 in6.2 miNW (320°)13.4 mphPartly Cloudy
11:00 AM82.0 °F50.0 °F22 %29.99 in6.0 miNNW (330°)13.4 mph
11:00 AM82.4 °F48.2 °F30 %30.01 in6.2 miNNW (330°)11.2 mphClear
12:00 PM86.0 °F41.0 °F20 %30.01 in6.2 miNW (310°)8.9 mphPartly Cloudy
1:00 PM87.8 °F35.6 °F16 %29.98 in6.2 miNorth (10°)6.7 mphPartly Cloudy
2:00 PM88.0 °F40.0 °F10 %29.97 in6.0 miNW (320°)6.7 mphPartly Cloudy
2:00 PM89.6 °F33.8 °F14 %29.98 in6.2 miWNW (300°)6.7 mphScattered Clouds
3:00 PM91.4 °F30.2 °F11 %29.98 in6.2 miNNW (330°)8.9 mphMostly Cloudy
4:00 PM89.6 °F32.0 °F13 %29.98 in6.2 miWNW (290°)6.7 mphMostly Cloudy
5:00 PM90.0 °F42.0 °F11 %29.94 in6.0 miNNW (330°)8.9 mphPartly Cloudy
5:00 PM89.6 °F33.8 °F14 %29.95 in6.2 miNW (310°)6.7 mphScattered Clouds
6:00 PM91.4 °F32.0 °F12 %29.95 in6.2 miNorth (360°)4.5 mphScattered Clouds
7:00 PM89.6 °F32.0 °F13 %29.95 in6.2 miWSW (240°)4.5 mphPartly Cloudy
8:00 PM87.0 °F49.0 °F17 %29.92 in6.0 miWSW (250°)4.5 mphScattered Clouds
8:00 PM86.0 °F37.4 °F18 %29.95 in6.2 miWSW (250°)4.5 mphPartly Cloudy
9:00 PM80.6 °F41.0 °F24 %29.95 in6.2 miSW (220°)6.7 mphClear
10:00 PM78.8 °F41.0 °F26 %29.98 in6.2 miSW (230°)4.5 mphClear
11:00 PM76.0 °F43.0 °F20 %29.95 in6.0 miWSW (240°)6.7 mph
11:00 PM75.2 °F42.8 °F31 %29.98 in6.2 miSW (230°)6.7 mphClear
11:30 PM73.4 °F41.0 °F31 %29.98 in6.2 miSSW (210°)4.5 mphClear
Hourly data recorded from UTAA, located miles away from Ashgabat, Turkmenistan







STORIES FROM OUR PARTNERS